Погода в Коле Бае

Синт-Мартен     18°02′06″N   63°04′56″W
темп.,
°C
ветер,
м/с
пор.,
м/с
влажн.,
%
обл.,
%
осадки,
мм/ч
давл.,
гПа
погр.,
м
23 января, сб
сб2323:00+25всв557715 0.0 1017716
02:00+25в667719 0.0 1016835
05:00+25в677937 0.4 1016743
08:00+25в777845 1.4 1017806
11:00+25в667779 0.1 1018727
14:00+26в557739 0.1 1016840
17:00+26всв557725 0.2 1015784
20:00+26всв667810 0.9 1016756
24 января, вс
вс2423:00+26всв67790 0.0 1016802
02:00+25всв67790 0.0 1015731
05:00+25всв668130 0.8 1015755
08:00+25в777821 1.5 1016878
11:00+25в667415 0.3 1017766
14:00+26в567512 0.5 1015837
17:00+25в667614 0.2 1014833
20:00+25всв56751 0.1 1015847
25 января, пн
пн2523:00+25всв67767 0.0 1016883
02:00+25всв787528 0.0 10141004
05:00+25св787856 0.3 1014877
08:00+25св787856 0.5 1017850
11:00+25св78787 0.5 1018881
14:00+25всв667732 1.3 1015841
17:00+25всв787744 0.3 1014854
20:00+25всв67766 0.1 1016838
26 января, вт
вт2623:00+25св89804 0.5 1016877
02:00+25всв89793 0.7 1015901
05:00+25всв897942 0.4 1015936
08:00+25всв887616 0.1 1017941
11:00+25всв78750 0.0 1018881
14:00+25всв78740 0.0 1016865
17:00+25всв77750 0.0 1016942
20:00+25всв78770 0.0 1017908
27 января, ср
ср2723:00+25всв88790 0.1 1017885
02:00+25всв89775 0.1 1016957
05:00+25всв9118020 0.6 1016904
08:00+25всв9108032 0.9 1018897
11:00+25всв9117919 0.3 10191031
14:00+25всв9108018 0.7 1017923
17:00+25всв9108069 0.3 1016853
20:00+25всв9108063 0.4 1017878